This demonstration page uses our WeatherBlox Daily Observations layout. Learn more.

Left ArrowRight Arrow

Hourly Observations for November 5, 2022

Temp ( °F °C ) Dew Point ( °F °C ) Humidity (%) Winds ( mph kmh ) Pressure ( in mb ) Visibility ( mi km ) Precip ( " mm )
12:51 am 00:51 Clear 38 3.3 29 -1.7 70 70 Calm 30.09 1019 10 16 0.00 0.00
1:51 am 01:51 Clear 35 1.7 28 -2.2 75 75 ESE 6 9 30.09 1019 10 16 0.00 0.00
2:51 am 02:51 Clear 35 1.7 28 -2.2 75 75 Calm 30.08 1019 10 16 0.00 0.00
3:51 am 03:51 Clear 34 1.1 28 -2.2 79 79 SSE 3 6 30.07 1018 10 16 0.00 0.00
4:51 am 04:51 Clear 32 0 27 -2.8 81 81 SSE 6 9 30.06 1018 10 16 0.00 0.00
5:51 am 05:51 Clear 32 0 27 -2.8 81 81 E 7 11 30.07 1018 10 16 0.00 0.00
6:51 am 06:51 Sunny 33 0.6 28 -2.2 81 81 NE 5 7 30.09 1019 10 16 0.00 0.00
7:51 am 07:51 Sunny 38 3.3 29 -1.7 70 70 SSW 3 6 30.09 1019 10 16 0.00 0.00
8:51 am 08:51 Sunny 44 6.7 30 -1.1 57 57 Calm 30.08 1019 10 16 0.00 0.00
9:51 am 09:51 Sunny 48 8.9 33 0.6 56 56 SSW 3 6 30.06 1018 10 16 0.00 0.00
10:51 am 10:51 Sunny 52 11.1 31 -0.6 44 44 Calm 30.03 1017 10 16 0.00 0.00
11:51 am 11:51 Sunny 55 12.8 31 -0.6 40 40 S 5 7 30.00 1016 10 16 0.00 0.00
12:51 pm 12:51 Sunny 59 15 29 -1.7 32 32 VRB 3 6 29.95 1014 10 16 0.00 0.00
1:51 pm 13:51 Sunny 62 16.7 29 -1.7 28 28 S 6 9 29.91 1013 10 16 0.00 0.00
2:51 pm 14:51 Sunny 63 17.2 29 -1.7 27 27 W 5 7 29.89 1012 10 16 0.00 0.00
3:51 pm 15:51 Sunny 64 17.8 29 -1.7 26 26 W 8 13 29.88 1012 10 16 0.00 0.00
4:51 pm 16:51 Sunny 63 17.2 30 -1.1 29 29 W 9 15 29.88 1012 10 16 0.00 0.00
5:51 pm 17:51 Clear 59 15 30 -1.1 33 33 SW 5 7 29.89 1012 10 16 0.00 0.00
6:51 pm 18:51 Clear 54 12.2 32 0 43 43 NW 6 9 29.91 1013 10 16 0.00 0.00
7:51 pm 19:51 Clear 50 10 32 0 50 50 E 3 6 29.92 1013 10 16 0.00 0.00
8:51 pm 20:51 Clear 49 9.4 31 -0.6 50 50 Calm 29.92 1013 10 16 0.00 0.00
9:51 pm 21:51 Clear 45 7.2 30 -1.1 55 55 NNE 3 6 29.93 1014 10 16 0.00 0.00
10:51 pm 22:51 Clear 44 6.7 30 -1.1 57 57 ENE 5 7 29.93 1014 10 16 0.00 0.00
11:51 pm 23:51 Clear 42 5.6 30 -1.1 62 62 SE 5 7 29.93 1014 10 16 0.00 0.00

Powered by AerisWeather